User: anonymous   Login
Location: Ash Swamp
(41.5170°N, 74.6157°W)
Time: 23:23:28
(UTC+00:00)
Language:

Meteor 1-11 - Orbit

View from above orbital plane
View from above orbital plane
View from above satellite
View from above satellite

Ground track
Ground track

The orbit data is extracted from the following two-line orbital elements,

1  5917U 72022A   20272.75108542 -.00000074  00000-0 -50515-4 0  9993
2  5917  81.2235 157.9702 0032877  98.8927 261.5967 14.08697773490782
Epoch (UTC): 28 September 2020 18:01:33
Eccentricity: 0.0032877
inclination: 81.2235°
perigee height: 840 km
apogee height: 887 km
right ascension of ascending node: 157.9702°
argument of perigee: 98.8927°
revolutions per day: 14.08697773
mean anomaly at epoch: 261.5967°
orbit number at epoch: 49078

The dashed part of the orbit path shows where the satellite is in the earth's shadow,  

DLR